TimePDT,TemperatureF,Dew PointF,Humidity,Sea Level PressureIn,VisibilityMPH,Wind Direction,Wind SpeedMPH,Gust SpeedMPH,PrecipitationIn,Events,Conditions,WindDirDegrees,DateUTC
12:53 AM,72.0,55.9,57,29.86,10.0,NW,17.3,-,N/A,,Clear,320,2013-08-09 07:53:00
1:53 AM,72.0,55.0,55,29.86,10.0,NW,16.1,-,N/A,,Clear,320,2013-08-09 08:53:00
2:53 AM,71.1,55.0,57,29.85,10.0,Variable,3.5,-,N/A,,Clear,0,2013-08-09 09:53:00
3:53 AM,64.0,54.0,70,29.86,10.0,ENE,4.6,-,N/A,,Clear,60,2013-08-09 10:53:00
4:53 AM,63.0,54.0,72,29.85,10.0,NE,6.9,-,N/A,,Clear,40,2013-08-09 11:53:00
5:53 AM,60.1,53.1,78,29.87,10.0,East,3.5,-,N/A,,Clear,80,2013-08-09 12:53:00
6:53 AM,64.9,54.0,68,29.88,10.0,East,3.5,-,N/A,,Clear,80,2013-08-09 13:53:00
7:53 AM,68.0,55.0,63,29.89,10.0,East,3.5,-,N/A,,Clear,80,2013-08-09 14:53:00
8:53 AM,73.0,55.9,55,29.89,10.0,Calm,Calm,-,N/A,,Clear,0,2013-08-09 15:53:00
9:53 AM,77.0,55.9,48,29.87,10.0,Variable,3.5,-,N/A,,Clear,0,2013-08-09 16:53:00
10:53 AM,84.0,57.9,41,29.85,10.0,Variable,3.5,-,N/A,,Clear,0,2013-08-09 17:53:00
11:53 AM,87.1,55.0,33,29.82,10.0,Calm,Calm,-,N/A,,Clear,0,2013-08-09 18:53:00
12:53 PM,91.9,53.1,27,29.81,10.0,South,6.9,-,N/A,,Clear,170,2013-08-09 19:53:00
1:53 PM,93.9,53.1,25,29.81,10.0,SSE,8.1,-,N/A,,Clear,150,2013-08-09 20:53:00
2:53 PM,97.0,46.0,18,29.79,10.0,SE,9.2,-,N/A,,Clear,140,2013-08-09 21:53:00
3:53 PM,98.1,43.0,15,29.78,10.0,South,5.8,-,N/A,,Clear,190,2013-08-09 22:53:00
4:53 PM,99.0,43.0,15,29.75,10.0,Variable,3.5,-,N/A,,Clear,0,2013-08-09 23:53:00
5:53 PM,97.0,44.1,16,29.74,10.0,South,3.5,-,N/A,,Clear,190,2013-08-10 00:53:00
6:53 PM,91.0,52.0,26,29.73,10.0,NW,3.5,-,N/A,,Clear,320,2013-08-10 01:53:00
7:53 PM,86.0,55.0,35,29.75,10.0,NW,4.6,-,N/A,,Clear,320,2013-08-10 02:53:00
8:53 PM,82.0,57.0,42,29.76,10.0,NW,16.1,-,N/A,,Clear,320,2013-08-10 03:53:00
9:53 PM,80.1,57.0,45,29.78,10.0,NW,12.7,20.7,0.00,Rain,Light Rain,320,2013-08-10 04:53:00
10:19 PM,80.6,57.2,45,29.87,9.0,SSW,16.1,48.3,0.01,,Squalls,200,2013-08-10 05:19:00
10:27 PM,71.6,60.8,69,29.85,3.0,SW,10.4,-,0.09,Rain,Heavy Rain,220,2013-08-10 05:27:00
10:32 PM,71.6,60.8,69,29.87,1.8,Variable,4.6,-,0.26,Rain,Heavy Rain,0,2013-08-10 05:32:00
10:43 PM,71.6,59.0,64,29.85,3.0,SW,5.8,-,0.38,Rain,Light Rain,230,2013-08-10 05:43:00
10:53 PM,71.1,61.0,70,29.82,10.0,NE,6.9,-,0.38,,Scattered Clouds,40,2013-08-10 05:53:00
11:53 PM,71.1,62.1,73,29.84,10.0,NNW,12.7,-,N/A,,Clear,330,2013-08-10 06:53:00